CW5040 Weather Reports


Display with metric or nautical units.
time (UTC)temp
F
wind
direction
speed
MPH
gust
MPH
rain 1hr
in
rain 24hr
in
rain mn
in
humidity
%
barometer
mb
20260504220853 66 18 0.0 0.0 0.00 0.00 0.00 27 1007.3
20260504220336 66 18 0.0 0.0 0.00 0.00 0.00 27 1007.5
20260504215841 66 18 0.0 0.0 0.00 0.00 0.00 27 1007.5
20260504215341 67 18 0.0 0.0 0.00 0.00 0.00 26 1007.5
20260504214823 66 18 0.0 0.0 0.00 0.00 0.00 26 1007.4
20260504214343 66 18 0.0 0.0 0.00 0.00 0.00 27 1007.4
20260504213827 66 18 0.0 0.0 0.00 0.00 0.00 27 1007.4
20260504213328 66 18 0.0 0.0 0.00 0.00 0.00 27 1007.4
20260504212831 66 18 0.0 0.0 0.00 0.00 0.00 28 1007.4
20260504212330 66 18 0.0 0.0 0.00 0.00 0.00 28 1007.4
20260504211838 66 18 0.0 0.0 0.00 0.00 0.00 27 1007.7
20260504211354 66 18 0.0 0.0 0.00 0.00 0.00 27 1007.7
20260504210847 66 18 0.0 0.0 0.00 0.00 0.00 27 1007.7
20260504210349 65 18 0.0 0.0 0.00 0.00 0.00 26 1007.7
20260504205828 66 18 0.0 0.0 0.00 0.00 0.00 26 1007.7
20260504205328 66 18 0.0 0.0 0.00 0.00 0.00 25 1007.7
20260504204831 66 18 0.0 0.0 0.00 0.00 0.00 25 1007.6
20260504204351 67 18 0.0 0.0 0.00 0.00 0.00 24 1007.6
20260504203902 67 18 0.0 0.0 0.00 0.00 0.00 24 1007.6
20260504203341 67 18 0.0 0.0 0.00 0.00 0.00 23 1007.4
20260504202901 68 18 0.0 0.0 0.00 0.00 0.00 23 1007.4
20260504202356 68 18 0.0 0.0 0.00 0.00 0.00 23 1007.4
20260504201823 68 18 0.0 0.0 0.00 0.00 0.00 23 1007.0
20260504201325 69 18 0.0 0.0 0.00 0.00 0.00 22 1007.0
20260504200856 69 18 0.0 0.0 0.00 0.00 0.00 22 1007.0
20260504200342 69 18 0.0 0.0 0.00 0.00 0.00 22 1007.0
20260504195828 69 18 0.0 0.0 0.00 0.00 0.00 22 1007.0
20260504195345 69 18 0.0 0.0 0.00 0.00 0.00 21 1007.0
20260504194848 69 18 0.0 0.0 0.00 0.00 0.00 21 1006.9
20260504194343 70 18 0.0 0.0 0.00 0.00 0.00 20 1006.9
20260504193840 70 18 0.0 0.0 0.00 0.00 0.00 19 1006.9
20260504193342 70 18 0.0 0.0 0.00 0.00 0.00 19 1006.8
20260504192844 70 18 0.0 0.0 0.00 0.00 0.00 18 1006.8
20260504192343 70 18 0.0 0.0 0.00 0.00 0.00 18 1006.8
20260504191826 71 18 0.0 0.0 0.00 0.00 0.00 18 1006.8
20260504191327 71 18 0.0 0.0 0.00 0.00 0.00 18 1006.8
20260504190850 71 18 0.0 0.0 0.00 0.00 0.00 18 1006.8
20260504190342 71 18 0.0 0.0 0.00 0.00 0.00 18 1006.6
20260504185848 71 18 0.0 0.0 0.00 0.00 0.00 18 1006.6
20260504185345 70 18 0.0 0.0 0.00 0.00 0.00 19 1006.6
20260504184840 69 18 0.0 0.0 0.00 0.00 0.00 19 1006.2
20260504184341 70 18 0.0 0.0 0.00 0.00 0.00 19 1006.2
20260504183837 70 18 0.0 0.0 0.00 0.00 0.00 18 1006.2
20260504183408 71 18 0.0 0.0 0.00 0.00 0.00 17 1006.0
20260504182848 73 18 0.0 0.0 0.00 0.00 0.00 13 1006.0
20260504182331 74 18 0.0 0.0 0.00 0.00 0.00 12 1006.0
20260504181835 74 18 0.0 0.0 0.00 0.00 0.00 12 1006.3
20260504181337 74 18 0.0 0.0 0.00 0.00 0.00 13 1006.3
20260504180901 74 18 0.0 0.0 0.00 0.00 0.00 13 1006.3
20260504180418 73 18 0.0 0.0 0.00 0.00 0.00 13 1006.3
20260504160355 69 18 0.0 0.0 0.00 0.00 0.00 17 1007.0
20260504150843 65 18 0.0 0.0 0.00 0.00 0.00 24 1007.6
20260504150322 64 18 0.0 0.0 0.00 0.00 0.00 26 1007.8
20260504140827 55 18 0.0 0.0 0.00 0.00 0.00 38 1007.7
20260504140330 54 18 0.0 0.0 0.00 0.00 0.00 39 1007.8
20260504130326 42 18 0.0 0.0 0.00 0.00 0.00 62 1007.7
20260504110332 35 18 0.0 0.0 0.00 0.00 0.00 68 1007.7
20260504100347 36 18 0.0 0.0 0.00 0.00 0.00 68 1008.0
20260504081838 41 18 0.0 0.0 0.00 0.00 0.00 62 1009.1
20260504081322 41 18 0.0 0.0 0.00 0.00 0.00 61 1009.1
20260504080835 41 18 0.0 0.0 0.00 0.00 0.00 61 1009.1
20260504080350 41 18 0.0 0.0 0.00 0.00 0.00 61 1009.2
20260504070347 42 18 0.0 0.0 0.00 0.00 0.00 58 1009.5
20260504050351 48 18 0.0 0.0 0.00 0.00 0.00 46 1010.0
20260504045845 49 18 0.0 0.0 0.00 0.00 0.00 44 1010.0
20260504045348 50 18 0.0 0.0 0.00 0.00 0.00 42 1010.0
20260504044847 51 18 0.0 0.0 0.00 0.00 0.00 41 1009.9
20260504044343 51 18 0.0 0.0 0.00 0.00 0.00 42 1009.9
20260504043836 51 18 0.0 0.0 0.00 0.00 0.00 43 1009.9
20260504043349 51 18 0.0 0.0 0.00 0.00 0.00 42 1010.0
20260504042902 51 18 0.0 0.0 0.00 0.00 0.00 41 1010.0
20260504042337 52 18 0.0 0.0 0.00 0.00 0.00 40 1010.0
20260504041900 52 18 0.0 0.0 0.00 0.00 0.00 40 1010.2
20260504041320 53 18 0.0 0.0 0.00 0.00 0.00 39 1010.2
20260504040855 53 18 0.0 0.0 0.00 0.00 0.00 39 1010.2
20260504040340 54 18 0.0 0.0 0.00 0.00 0.00 38 1010.2
20260504035828 55 18 0.0 0.0 0.00 0.00 0.00 37 1010.2
20260504035343 56 18 0.0 0.0 0.00 0.00 0.00 36 1010.2
20260504034911 56 18 0.0 0.0 0.00 0.00 0.00 36 1010.4
20260504034344 56 18 0.0 0.0 0.00 0.00 0.00 35 1010.4
20260504033908 57 18 0.0 0.0 0.00 0.00 0.00 35 1010.4
20260504033334 57 18 0.0 0.0 0.00 0.00 0.00 35 1010.2
20260504032833 57 18 0.0 0.0 0.00 0.00 0.00 34 1010.2
20260504032355 58 18 0.0 0.0 0.00 0.00 0.00 34 1010.2
20260504031846 58 18 0.0 0.0 0.00 0.00 0.00 34 1010.0
20260504031402 58 18 0.0 0.0 0.00 0.00 0.00 33 1010.0
20260504030834 58 18 0.0 0.0 0.00 0.00 0.00 32 1010.0
20260504030334 59 18 0.0 0.0 0.00 0.00 0.00 31 1010.2
20260504025832 59 18 0.0 0.0 0.00 0.00 0.00 31 1010.2
20260504025344 60 18 0.0 0.0 0.00 0.00 0.00 29 1010.2
20260504024859 61 18 0.0 0.0 0.00 0.00 0.00 29 1010.0
20260504024340 61 18 0.0 0.0 0.00 0.00 0.00 29 1010.0
20260504023844 61 18 0.0 0.0 0.00 0.00 0.00 29 1010.0
20260504023353 61 18 0.0 0.0 0.00 0.00 0.00 28 1010.0
20260504022849 62 18 0.0 0.0 0.00 0.00 0.00 27 1010.0
20260504022341 63 18 0.0 0.0 0.00 0.00 0.00 26 1010.0
20260504021829 66 18 0.0 0.0 0.00 0.00 0.00 21 1009.4
20260504021334 69 18 0.0 0.0 0.00 0.00 0.00 14 1009.4
20260504020836 69 18 0.0 0.0 0.00 0.00 0.00 13 1009.4
20260504020354 69 18 0.0 0.0 0.00 0.00 0.00 13 1009.4
20260504015909 69 18 0.0 0.0 0.00 0.00 0.00 13 1009.4
20260504015320 68 18 0.0 0.0 0.00 0.00 0.00 13 1009.4
20260504014857 68 18 0.0 0.0 0.00 0.00 0.00 13 1008.9
20260504014354 68 18 0.0 0.0 0.00 0.00 0.00 12 1008.9
20260504013826 69 18 0.0 0.0 0.00 0.00 0.00 11 1008.9
20260504013358 68 18 0.0 0.0 0.00 0.00 0.00 13 1008.8
20260504012834 68 18 0.0 0.0 0.00 0.00 0.00 13 1008.8
20260504012334 69 18 0.0 0.0 0.00 0.00 0.00 13 1008.8
20260504011829 69 18 0.0 0.0 0.00 0.00 0.00 12 1008.8
20260504011409 69 18 0.0 0.0 0.00 0.00 0.00 13 1008.8
20260504010840 69 18 0.0 0.0 0.00 0.00 0.00 13 1008.8
20260504010334 69 18 0.0 0.0 0.00 0.00 0.00 13 1008.8
20260504005834 69 18 0.0 0.0 0.00 0.00 0.00 13 1008.8
20260504005337 70 18 0.0 0.0 0.00 0.00 0.00 13 1008.8
20260504004831 70 18 0.0 0.0 0.00 0.00 0.00 13 1008.9
20260504004324 70 18 0.0 0.0 0.00 0.00 0.00 12 1008.9
20260504003852 70 18 0.0 0.0 0.00 0.00 0.00 13 1008.9
20260504003327 70 18 0.0 0.0 0.00 0.00 0.00 12 1009.0
20260504002841 70 18 0.0 0.0 0.00 0.00 0.00 13 1009.0
20260504002326 70 18 0.0 0.0 0.00 0.00 0.00 13 1009.0
20260504001839 70 18 0.0 0.0 0.00 0.00 0.00 14 1009.4
20260504001401 70 18 0.0 0.0 0.00 0.00 0.00 14 1009.4
20260504000830 70 18 0.0 0.0 0.00 0.00 0.00 14 1009.4
20260504000355 70 18 0.0 0.0 0.00 0.00 0.00 14 1009.5
20260503235829 70 18 0.0 0.0 0.00 0.00 0.00 14 1009.5
20260503235338 70 18 0.0 0.0 0.00 0.00 0.00 15 1009.5
20260503234838 70 18 0.0 0.0 0.00 0.00 0.00 14 1009.5
20260503234332 70 18 0.0 0.0 0.00 0.00 0.00 15 1009.5
20260503233850 70 18 0.0 0.0 0.00 0.00 0.00 14 1009.5
20260503233357 70 18 0.0 0.0 0.00 0.00 0.00 15 1009.9
20260503232847 70 18 0.0 0.0 0.00 0.00 0.00 15 1009.9
20260503232325 70 18 0.0 0.0 0.00 0.00 0.00 15 1009.9
20260503231843 70 18 0.0 0.0 0.00 0.00 0.00 15 1010.0
20260503231333 70 18 0.0 0.0 0.00 0.00 0.00 16 1010.0
20260503230834 70 18 0.0 0.0 0.00 0.00 0.00 17 1010.0
20260503230325 70 18 0.0 0.0 0.00 0.00 0.00 17 1010.1
20260503225854 69 18 0.0 0.0 0.00 0.00 0.00 17 1010.1
20260503225329 69 18 0.0 0.0 0.00 0.00 0.00 17 1010.1
20260503224824 69 18 0.0 0.0 0.00 0.00 0.00 18 1010.6
20260503222840 70 18 0.0 0.0 0.00 0.00 0.00 17 1010.6
20260503222344 70 18 0.0 0.0 0.00 0.00 0.00 16 1010.6
20260503221851 71 18 0.0 0.0 0.00 0.00 0.00 16 1010.6
20260503221333 71 18 0.0 0.0 0.00 0.00 0.00 15 1010.6